This demonstration page uses our WeatherBlox Daily Observations layout. Learn more.

41.55636, -103.73856

Hourly Observations for May 31, 2015

Temp ( °F °C ) Dew Point ( °F °C ) Humidity (%) Winds ( mph kmh ) Pressure ( in mb ) Visibility ( mi km ) Precip ( " mm )
12:53 am 00:53 Clear 51 10.6 44 6.7 77 77 ESE 16 26 30.04 1017 10 16.0934 0 0
1:53 am 01:53 Clear 49 9.4 43 6.1 80 80 ESE 15 24 30 1016 10 16.0934 0 0
2:53 am 02:53 Clear 49 9.4 43 6.1 80 80 E 14 22 29.98 1015 10 16.0934 0 0
3:53 am 03:53 Mostly Clear 49 9.4 44 6.7 83 83 ESE 12 19 29.96 1014 10 16.0934 0 0
4:53 am 04:53 Mostly Cloudy 49 9.4 45 7.2 86 86 E 9 15 29.94 1014 10 16.0934 0 0
5:53 am 05:53 Sunny 48 8.9 45 7.2 89 89 ESE 12 19 29.93 1014 10 16.0934 0 0
6:53 am 06:53 Sunny 50 10 47 8.3 89 89 E 10 17 29.93 1014 10 16.0934 0 0
7:53 am 07:53 Sunny 56 13.3 49 9.4 77 77 E 7 11 29.93 1014 10 16.0934 0 0
8:53 am 08:53 Sunny 62 16.7 51 10.6 67 67 W 8 13 29.95 1014 10 16.0934 0 0
9:53 am 09:53 Sunny 65 18.3 54 12.2 68 68 WNW 9 15 29.95 1014 10 16.0934 0 0
10:53 am 10:53 Sunny 71 21.7 56 13.3 59 59 W 5 7 29.93 1014 10 16.0934 0 0
11:53 am 11:53 Sunny 78 25.6 57 13.9 48 48 VRB 7 11 29.91 1013 10 16.0934 0 0
12:53 pm 12:53 Sunny 80 26.7 53 11.7 39 39 NW 14 22 29.9 1013 10 16.0934 0 0
1:53 pm 13:53 Sunny 81 27.2 54 12.2 39 39 NNW 16 26 29.9 1012 10 16.0934 0 0
2:53 pm 14:53 Sunny 82 27.8 54 12.2 38 38 N 14 22 29.88 1012 10 16.0934 0 0
3:53 pm 15:53 Sunny 81 27.2 53 11.7 38 38 N 12 19 29.88 1012 10 16.0934 0 0
4:53 pm 16:53 Sunny 80 26.7 52 11.1 38 38 NNE 15 24 29.88 1012 10 16.0934 0 0
5:53 pm 17:53 Sunny 77 25 52 11.1 42 42 NNE 8 13 29.89 1012 10 16.0934 0 0
6:53 pm 18:53 Sunny 76 24.4 52 11.1 43 43 E 12 19 29.9 1013 10 16.0934 0 0
7:53 pm 19:53 Sunny 72 22.2 54 12.2 53 53 E 7 11 29.91 1013 10 16.0934 0 0
8:53 pm 20:53 Clear 66 18.9 55 12.8 68 68 ENE 6 9 29.92 1013 10 16.0934 0 0
9:53 pm 21:53 Clear 63 17.2 55 12.8 76 76 Calm 29.94 1014 10 16.0934 0 0
10:53 pm 22:53 Mostly Clear 62 16.7 54 12.2 75 75 ENE 3 6 29.93 1014 10 16.0934 0 0
11:53 pm 23:53 Clear 60 15.6 54 12.2 80 80 NE 5 7 29.92 1013 10 16.0934 0 0

Powered by AerisWeather